Regional Weather Roundup
Issued by NWS Cleveland, OH

Home | Current Version | Previous Version | Graphics & Text | Print | Product List | Glossary On
Versions: 1 2 3 4 5 6 7 8 9 10 11 12 13 14 15 16 17 18 19 20 21 22 23 24 25 26 27 28 29 30 31 32 33 34 35 36 37 38 39 40 41 42 43 44 45 46 47 48 49 50
000
ASUS41 KCLE 030210
RWRCLE
OHIO REGIONAL WEATHER ROUNDUP
NATIONAL WEATHER SERVICE WILMINGTON, OH
1000 PM EDT TUE SEP 02 2014

NOTE: "FAIR" INDICATES FEW OR NO CLOUDS BELOW 12,000 FEET WITH NO
SIGNIFICANT WEATHER AND/OR OBSTRUCTIONS TO VISIBILITY.

OHZ001>008-015>018-024>027-034-035-043-044-030300-
   NORTHWEST OHIO

CITY           SKY/WX    TMP DP  RH WIND       PRES   REMARKS
DEFIANCE       MOCLDY    68  64  87 CALM      29.95R
FINDLAY        MOCLDY    68  65  90 SW3       29.95R
TOLEDO EXPRESS PTCLDY    66  64  93 CALM      29.94R
TOLEDO METCALF MOCLDY    68  64  87 S3        29.95R
LIMA           MOCLDY    71  66  84 CALM      29.97R
$$

OHZ009>014-019>023-028>033-038-089-030300-
   NORTHEAST OHIO

CITY           SKY/WX    TMP DP  RH WIND       PRES   REMARKS
CLE-HOPKINS    PTCLDY    65  62  90 SW5       29.97R
CLE-LAKEFRONT  MOCLDY    69  60  73 S3        29.93R
CUY CO. ARPT   NOT AVBL
LORAIN-ELYRIA  PTCLDY    66  62  87 SW6       29.96R
ASHTABULA      MOCLDY    66  64  93 CALM      29.95R
AKRON-CANTON   PTCLDY    69  64  84 W7        29.97R
WOOSTER        CLEAR     65  63  93 W3        29.98R
MANSFIELD      CLEAR     64  64 100 SW3       29.99R
YOUNGSTOWN     PTCLDY    65  64  97 CALM      29.96R
$$

OHZ042-051>053-060>062-070>072-077>081-030300-
  SOUTHWEST OHIO

CITY           SKY/WX    TMP DP  RH WIND       PRES   REMARKS
CINC-COVINGTON MOCLDY    70  69  97 CALM      29.98R
CINC-LUNKEN    CLEAR     69  69 100 CALM      29.97S
HAMILTON       CLEAR     68  67  96 CALM      29.98R
DAYTON         CLEAR     70  66  87 SW3       29.99R
WRIGHT-PAT AFB CLEAR     69  68  99 CALM      29.98R
DAYTON GENERAL CLEAR     70  67  90 CALM      29.98R
WILMINGTON     CLEAR     67  64  90 CALM      29.98R
$$

OHZ036-037-039>041-045>050-054>059-063>069-073>076-082>088-030300-
  CENTRAL AND SOUTHEAST OHIO

CITY           SKY/WX    TMP DP  RH WIND       PRES   REMARKS
COLUMBUS       PTCLDY    73  66  78 N5        29.96R
OSU AIRPORT    PTCLDY    70  67  90 NW3       29.97R
BOLTON FIELD   CLEAR     68  68  99 W3        29.98R
RICKENBACK AFB CLEAR     69  63  80 CALM      29.97R
NEWARK         CLEAR     66  64  93 SW3       29.97R
MARION         MOCLDY    66  63  90 S5        29.98R
LANCASTER      CLEAR     68  65  90 CALM      29.98R
ZANESVILLE     PTCLDY    68  65  90 SW3       29.98R
NEW PHILLY     CLOUDY    70  67  90 CALM      29.98R
$$


USA.gov is the U.S. government's official web portal to all federal, state and local government web resources and services.